• In Austria
  • List of Countries
  • For 7 days
  • Water Temperature
  • Satellite Maps
  • Weather Map
  • News
  • Weather Widgets
  • user-avatar
    Login

    Hourly Weather Kwietnik

    Today, 24 May, Thursday

    Time Temperature Precipitation Wind Pressure Humidity
    00:00 +9°C° 0 mm 2 mps 755 mmHg 86%
    01:00 +9°C° 0 mm 2 mps 755 mmHg 87%
    02:00 +9°C° 0 mm 2 mps 755 mmHg 88%
    03:00 +9°C° 0 mm 2 mps 755 mmHg 88%
    04:00 +9°C° 0 mm 2 mps 755 mmHg 89%
    05:00 +12°C° 0 mm 2 mps 755 mmHg 85%
    06:00 +13°C° 0 mm 3 mps 755 mmHg 81%
    07:00 +16°C° 0 mm 3 mps 755 mmHg 77%
    08:00 +17°C° 0 mm 3 mps 755 mmHg 72%
    09:00 +18°C° 0 mm 4 mps 755 mmHg 66%
    10:00 +20°C° 0 mm 4 mps 755 mmHg 61%
    11:00 +20°C° 0 mm 4 mps 755 mmHg 60%
    12:00 +21°C° 0 mm 5 mps 755 mmHg 59%
    13:00 +21°C° 0 mm 5 mps 755 mmHg 57%
    14:00 +21°C° 0 mm 5 mps 755 mmHg 59%
    15:00 +20°C° 0 mm 5 mps 754 mmHg 61%
    16:00 +20°C° 0 mm 5 mps 754 mmHg 63%
    17:00 +17°C° 0 mm 5 mps 754 mmHg 68%
    18:00 +15°C° 0 mm 4 mps 754 mmHg 73%
    19:00 +14°C° 0 mm 4 mps 754 mmHg 78%
    20:00 +12°C° 0 mm 3 mps 754 mmHg 77%
    21:00 +11°C° 0 mm 3 mps 754 mmHg 75%
    22:00 +10°C° 0 mm 3 mps 754 mmHg 73%
    23:00 +10°C° 0 mm 2 mps 753 mmHg 75%

    Tomorrow, 25 May, Friday

    Time Temperature Precipitation Wind Pressure Humidity
    00:00 +9°C° 0 mm 2 mps 753 mmHg 77%
    01:00 +9°C° 0 mm 2 mps 753 mmHg 79%
    02:00 +9°C° 0 mm 2 mps 753 mmHg 81%
    03:00 +9°C° 0 mm 2 mps 753 mmHg 84%
    04:00 +9°C° 0 mm 2 mps 753 mmHg 86%
    05:00 +12°C° 0 mm 2 mps 753 mmHg 82%
    06:00 +13°C° 0 mm 3 mps 753 mmHg 79%
    07:00 +16°C° 0 mm 3 mps 753 mmHg 75%
    08:00 +17°C° 0.1 mm 4 mps 753 mmHg 73%
    09:00 +19°C° 0.1 mm 4 mps 753 mmHg 71%
    10:00 +20°C° 0.1 mm 4 mps 753 mmHg 69%
    11:00 +20°C° 0.5 mm 5 mps 753 mmHg 69%
    12:00 +21°C° 0.5 mm 5 mps 753 mmHg 70%
    13:00 +21°C° 0.5 mm 5 mps 753 mmHg 70%
    14:00 +21°C° 0.7 mm 5 mps 752 mmHg 71%
    15:00 +21°C° 0.7 mm 5 mps 752 mmHg 73%
    16:00 +21°C° 0.7 mm 5 mps 752 mmHg 74%
    17:00 +20°C° 0.3 mm 4 mps 752 mmHg 79%
    18:00 +19°C° 0.3 mm 4 mps 752 mmHg 83%
    19:00 +18°C° 0.3 mm 4 mps 752 mmHg 87%
    20:00 +17°C° 0 mm 4 mps 752 mmHg 89%
    21:00 +16°C° 0 mm 3 mps 752 mmHg 91%
    22:00 +14°C° 0 mm 3 mps 752 mmHg 93%
    23:00 +14°C° 0.1 mm 3 mps 752 mmHg 93%

    Day after tomorrow, 26 May, Saturday

    Time Temperature Precipitation Wind Pressure Humidity
    00:00 +14°C° 0.1 mm 3 mps 752 mmHg 94%
    01:00 +13°C° 0.1 mm 3 mps 752 mmHg 94%
    02:00 +13°C° 0.4 mm 3 mps 752 mmHg 94%
    03:00 +13°C° 0.4 mm 3 mps 752 mmHg 94%
    04:00 +14°C° 0.4 mm 2 mps 752 mmHg 95%
    05:00 +14°C° 0 mm 3 mps 752 mmHg 92%
    06:00 +17°C° 0 mm 3 mps 753 mmHg 90%
    07:00 +18°C° 0 mm 3 mps 753 mmHg 87%
    08:00 +19°C° 0.2 mm 3 mps 753 mmHg 83%
    09:00 +20°C° 0.2 mm 3 mps 753 mmHg 78%
    10:00 +23°C° 0.2 mm 2 mps 753 mmHg 74%
    11:00 +23°C° 0.4 mm 2 mps 753 mmHg 70%
    12:00 +24°C° 0.4 mm 2 mps 753 mmHg 67%
    13:00 +25°C° 0.4 mm 2 mps 753 mmHg 63%
    14:00 +24°C° 0.9 mm 2 mps 752 mmHg 66%
    15:00 +24°C° 0.9 mm 2 mps 752 mmHg 69%
    16:00 +24°C° 0.9 mm 2 mps 752 mmHg 72%
    17:00 +21°C° 0.5 mm 2 mps 752 mmHg 77%
    18:00 +20°C° 0.5 mm 2 mps 752 mmHg 82%
    19:00 +19°C° 0.5 mm 2 mps 752 mmHg 86%
    20:00 +18°C° 0.1 mm 2 mps 752 mmHg 88%
    21:00 +17°C° 0.1 mm 2 mps 752 mmHg 90%
    22:00 +16°C° 0.1 mm 2 mps 752 mmHg 92%
    23:00 +16°C° 0.3 mm 2 mps 751 mmHg 93%

    27 May, Sunday

    Time Temperature Precipitation Wind Pressure Humidity
    00:00 +15°C° 0.3 mm 2 mps 751 mmHg 94%
    01:00 +15°C° 0.3 mm 2 mps 751 mmHg 94%
    02:00 +15°C° 0.5 mm 2 mps 751 mmHg 95%
    03:00 +14°C° 0.5 mm 2 mps 751 mmHg 95%
    04:00 +14°C° 0.5 mm 2 mps 751 mmHg 96%
    05:00 +14°C° 0.1 mm 3 mps 751 mmHg 94%
    06:00 +16°C° 0.1 mm 3 mps 751 mmHg 92%
    07:00 +18°C° 0.1 mm 3 mps 751 mmHg 90%
    08:00 +18°C° 0.1 mm 4 mps 752 mmHg 87%
    09:00 +19°C° 0.1 mm 4 mps 752 mmHg 85%
    10:00 +20°C° 0.1 mm 4 mps 752 mmHg 82%
    11:00 +20°C° 0.3 mm 4 mps 752 mmHg 82%
    12:00 +20°C° 0.3 mm 4 mps 752 mmHg 81%
    13:00 +20°C° 0.3 mm 4 mps 752 mmHg 81%
    14:00 +21°C° 0.3 mm 4 mps 752 mmHg 80%
    15:00 +21°C° 0.3 mm 5 mps 752 mmHg 79%
    16:00 +21°C° 0.3 mm 5 mps 752 mmHg 78%
    17:00 +20°C° 0.1 mm 5 mps 752 mmHg 80%
    18:00 +19°C° 0.1 mm 4 mps 752 mmHg 82%
    19:00 +18°C° 0.1 mm 4 mps 752 mmHg 84%
    20:00 +18°C° 0.1 mm 4 mps 753 mmHg 86%
    21:00 +17°C° 0.1 mm 4 mps 753 mmHg 88%
    22:00 +15°C° 0.1 mm 4 mps 753 mmHg 90%
    23:00 +14°C° 0.1 mm 4 mps 753 mmHg 90%

    28 May, Monday

    Time Temperature Precipitation Wind Pressure Humidity
    00:00 +14°C° 0.1 mm 4 mps 754 mmHg 91%
    01:00 +14°C° 0.1 mm 4 mps 754 mmHg 92%
    02:00 +13°C° 0 mm 4 mps 754 mmHg 92%
    03:00 +13°C° 0 mm 4 mps 754 mmHg 93%
    04:00 +13°C° 0 mm 4 mps 754 mmHg 93%
    05:00 +14°C° 0 mm 4 mps 754 mmHg 90%
    06:00 +17°C° 0 mm 4 mps 754 mmHg 86%
    07:00 +18°C° 0 mm 4 mps 755 mmHg 83%
    08:00 +20°C° 0 mm 5 mps 755 mmHg 78%
    09:00 +21°C° 0 mm 5 mps 755 mmHg 73%
    10:00 +23°C° 0 mm 5 mps 755 mmHg 68%
    11:00 +23°C° 0 mm 5 mps 755 mmHg 67%
    12:00 +25°C° 0 mm 5 mps 755 mmHg 65%
    13:00 +25°C° 0 mm 5 mps 755 mmHg 64%
    14:00 +25°C° 0.1 mm 5 mps 754 mmHg 65%
    15:00 +25°C° 0.1 mm 5 mps 754 mmHg 67%
    16:00 +25°C° 0.1 mm 5 mps 754 mmHg 69%
    17:00 +23°C° 0.1 mm 5 mps 754 mmHg 73%
    18:00 +22°C° 0.1 mm 5 mps 754 mmHg 77%
    19:00 +21°C° 0.1 mm 5 mps 754 mmHg 81%
    20:00 +19°C° 0 mm 5 mps 754 mmHg 83%
    21:00 +17°C° 0 mm 5 mps 754 mmHg 84%
    22:00 +16°C° 0 mm 5 mps 755 mmHg 86%
    23:00 +17°C° 0 mm 4 mps 755 mmHg 86%

    29 May, Tuesday

    Time Temperature Precipitation Wind Pressure Humidity
    00:00 +15°C° 0 mm 4 mps 755 mmHg 86%
    01:00 +15°C° 0 mm 4 mps 755 mmHg 87%
    02:00 +14°C° 0 mm 4 mps 755 mmHg 87%
    03:00 +14°C° 0 mm 4 mps 755 mmHg 87%
    04:00 +14°C° 0 mm 5 mps 754 mmHg 88%
    05:00 +15°C° 0 mm 5 mps 754 mmHg 84%
    06:00 +17°C° 0 mm 5 mps 754 mmHg 81%
    07:00 +19°C° 0 mm 5 mps 755 mmHg 77%
    08:00 +20°C° 0 mm 6 mps 755 mmHg 72%
    09:00 +22°C° 0 mm 6 mps 754 mmHg 67%
    10:00 +23°C° 0 mm 6 mps 754 mmHg 63%
    11:00 +23°C° 0 mm 6 mps 754 mmHg 61%
    12:00 +24°C° 0 mm 6 mps 754 mmHg 60%
    13:00 +24°C° 0 mm 6 mps 754 mmHg 59%
    14:00 +24°C° 0 mm 6 mps 754 mmHg 61%
    15:00 +25°C° 0 mm 5 mps 753 mmHg 62%
    16:00 +25°C° 0 mm 5 mps 753 mmHg 64%
    17:00 +23°C° 0 mm 5 mps 753 mmHg 69%
    18:00 +22°C° 0 mm 4 mps 753 mmHg 73%
    19:00 +20°C° 0 mm 4 mps 752 mmHg 78%
    20:00 +19°C° 0 mm 4 mps 752 mmHg 79%
    21:00 +18°C° 0 mm 4 mps 752 mmHg 80%
    22:00 +17°C° 0 mm 4 mps 752 mmHg 81%
    23:00 +17°C° 0 mm 4 mps 752 mmHg 83%
    Show more